OPS 4682 DEB, 38389

Orbit data source: Space-Track

OPS 4682 DEB, 38389 is space debris in LEO originally from a launch on Sat, 03 Apr 1965 UTC launched from the Air Force Western Test Range (AFWTR). Debris objects in space refer to the collection of defunct objects orbiting the Earth. Examples of debris include non-operational satellites, rocket bodies, and fragments generated from explosions, collisions, or faulty payload assembly.

Loading next visibility...
Identifier
38389, 1965-027CS
Orbit
LEO
Country
Flag of USUS
Related business
Manufacturer
Unknown
Mission
Spacecraft
Bus & Motor
Unknown
Mass
Unknown
Launch date (UTC)
1965-04-03 (61 years ago)
Launch vehicle
Unknown
Launch site
Air Force Western Test Range (AFWTR)
Object type
Payload
Rocket body
Debris
Shape & HBR
Unknown shape, 0.1 m
Radar Cross Section
Medium (>0.1 m² and <1 m²)

Expand to show TLE details & history
Last TLE update: 4 days ago

TLE from 4 days ago
0 OPS 4682 DEB
1 38389U 65027CS  26174.08085220  .00000844  00000-0  27827-2 0  9990
2 38389  90.3207  41.9029 0002946 262.7348  97.3439 12.99977799 82578
Epoch: 2026-06-23T01:56Z
TLE epoch observation values (Epoch: 2026-06-23T01:56:25.630Z)
Latitude
-0.00003°
Longitude
101.53856°
Altitude
1,265.346 km
Speed
7.223 km/s
True Right ascension
02h 47m 36s
True Declination
0° 00' 00"
Sunlit
Object was in daylight at epoch
Visualization orbit readout
Latitude
Unknown
Longitude
Unknown
Altitude
Unknown
Speed
Unknown
Apparent Right ascension
Unknown
Apparent Declination
Unknown
Sunlit
N/A
Visualization observer readout
Local Sidereal Time
11:43:48
Azimuth
Unknown
Elevation
Unknown
Doppler factor
Unknown
Orbital elements
Apogee altitude
1,261.551 km
Perigee altitude
1,257.051 km
Semi-major axis
7,637.438 km
Eccentricity
0.00029
Inclination
90.3207°
RAAN
41.9029°
Arg. of periapsis
262.7348°
True anomaly
97.37738°
Mean anomaly
97.3439°
Eccentric anomaly
97.36064°
Mean motion
3.25178 °/min
Orbital period
110.71 mins
BSTAR
0.0027827
Loading maneuver chart data...
Computing Atmospheric mass density...
Loading historical data...
Loading historical data...
Loading historical data...
Loading historical data...
Loading historical data...
Loading historical data...
Loading historical data...

Documentation

Showing up to 5 results
|